Back to catalog

SL-12 R/B(2)

AliveGEO
NORAD 17065·ROCKET BODY·🇷🇺 Russia

Launched Oct 25, 1986 from Baikonur Cosmodrome

Loading…

TLE

FreshSource: Space-Track

Epoch: Sep 14, 2026, 05:39 UTC

1 17065U 86082F   26257.23575238 -.00000060  00000-0  00000-0 0  9997
2 17065  11.4864 325.7608 0026558 174.3986 213.1751  0.97597686116555

Track SL-12 R/B(2) in real time with AllMySat

Download on the App Store